Location: Strawberry
(45.6646°N, 111.9596°W)
Time: 18:29:07
(UTC+00:00)

SR - Pass Details

Date: 07 October 2022
Orbit: 577 x 874 km, 66.7° (Epoch: 05 December)

Event Time Altitude Azimuth Distance (km) Brightness Sun altitude
Rises 01:35:02 0° 153° (SSE) 3,425 ? -7.2°
Reaches altitude 10° 01:38:59 10° 127° (SE) 2,517 ? -7.9°
Maximum altitude 01:41:28 13° 102° (ESE) 2,322 ? -8.4°
Drops below altitude 10° 01:43:57 10° 77° (ENE) 2,528 ? -8.8°
Enters shadow 01:44:13 - 74° (ENE) 2,570 ? -8.8°
